User: anonymous   Login
Location: Laterina
(43.5167°N, 11.7167°E)
Time: 22:56:05
(UTC+00:00)
Language:

BREEZE-M DEB (TANK) - Orbit

View from above orbital plane
View from above orbital plane
View from above satellite
View from above satellite

Ground track
Ground track

The orbit data is extracted from the following two-line orbital elements,

1 33374U 08044B   20328.40581696 +.00002459 +00000-0 +60908-3 0  9996
2 33374 049.4045 121.4583 5441053 119.2173 305.5540 04.88051329215244
Epoch (UTC): 23 November 2020 09:44:22
Eccentricity: 0.5441053
inclination: 49.4045°
perigee height: 315 km
apogee height: 16291 km
right ascension of ascending node: 121.4583°
argument of perigee: 119.2173°
revolutions per day: 4.88051329
mean anomaly at epoch: 305.5540°
orbit number at epoch: 21524

The dashed part of the orbit path shows where the satellite is in the earth's shadow,  

DLR